{"data":{"norad_id":50812,"epoch":"2026-05-25T01:52:59.179008Z","epoch_age_seconds":64355,"freshness":"FRESH","line1":"1 50812U 22001K   26145.07846272  .00000089  00000+0  23655-4 0  9996","line2":"2 50812  53.2150 176.3029 0000995  65.8455 294.2641 15.08835341242079","mean_motion":15.08835341,"eccentricity":9.95e-5,"inclination_deg":53.215,"raan_deg":176.3029,"arg_perigee_deg":65.8455,"mean_anomaly_deg":294.2641,"bstar":2.3655e-5,"rev_number":24207,"period_min":95.437849371,"perigee_km":539.06929918423,"apogee_km":540.44596021554,"semimajor_km":6917.8946296999,"source":"CELESTRAK","updated_at":"2026-05-25T13:38:16.875498Z"}}